Regional Weather Roundup
Issued by NWS

Home | Current Version | Previous Version | Graphics & Text | Print | Product List | Glossary On
Versions: 1 2 3 4 5 6 7 8 9 10 11 12 13 14 15 16 17 18 19 20 21 22 23 24 25 26 27 28 29 30 31 32 33 34 35 36 37 38 39 40 41 42 43 44 45 46 47 48 49 50
000
ASUS45 KCYS 050110
RWRWY

WYOMING REGIONAL WEATHER ROUNDUP
NATIONAL WEATHER SERVICE CHEYENNE WY
700 PM MDT MON MAY 04 2015

NOTE:  "FAIR" INDICATES FEW OR NO CLOUDS BELOW 12,000 FEET
WITH NO SIGNIFICANT WEATHER AND/OR OBSTRUCTIONS TO VISIBILITY.

WYZ001-050200-
YELLOWSTONE NATIONAL PARK

CITY           SKY/WX    TMP DP  RH WIND       PRES   REMARKS
LK YELLOWSTONE   N/A     51  29  42 CALM      30.04F
W YELLOWSTONE  NOT AVBL

$$
WYZ002>013-054>058-071-098>099-050200-
NORTHERN WYOMING

CITY           SKY/WX    TMP DP  RH WIND       PRES   REMARKS
JACKSON        SUNNY     61  30  31 CALM      29.98F
CODY           FAIR      64  41  42 S9        29.93S
GREYBULL       FAIR      74  31  20 CALM      29.85S
WORLAND        FAIR      71  36  27 CALM      29.87F
SHERIDAN       PTSUNNY   65  45  48 S8        29.91S
BUFFALO        PTSUNNY   62  43  49 SE18G28   29.96S
GILLETTE       FAIR      57  39  51 SE21G28   29.99F
HULETT         FAIR      59  39  47 S12       30.04S
NEWCASTLE      FAIR      52  34  50 SE23G30   30.08S

$$
WYZ014>020-022>026-101>103-050200-
CENTRAL WYOMING

CITY           SKY/WX    TMP DP  RH WIND       PRES   REMARKS
BIG PINEY      PTSUNNY   55  37  50 NW13      30.02S
PINEDALE       FAIR      55  32  41 W8        30.02R
DUBOIS         FAIR      59  27  29 NW8       30.00S
LANDER         PTSUNNY   65  34  31 NE8       29.91F
RIVERTON       FAIR      66  27  23 NE7       29.94S
CASPER         FAIR      62  44  51 S5        29.96F
DOUGLAS        FAIR      54  42  64 SE18      30.03S

$$
WYZ021-027>030-104>119-050200-
SOUTHERN WYOMING

CITY           SKY/WX    TMP DP  RH WIND       PRES   REMARKS
EVANSTON       FAIR      54  38  54 E5        30.01F
KEMMERER       MOCLDY    54  36  50 NW6       30.03S
FORT BRIDGER   MOCLDY    50  43  76 NE5       30.04F
ROCK SPRINGS   CLOUDY    60  31  33 W6        29.99S
DIXON          FAIR      55  42  62 N5        30.05S
RAWLINS        PTSUNNY   53  39  59 SE9       30.06R
SARATOGA       FAIR      48  43  81 MISG      30.06F
LARAMIE        FAIR      48  40  73 SE17      30.08F
CHEYENNE       CLOUDY    52  43  71 SE13      30.08F
TORRINGTON     FAIR      58  37  45 SE17G28   30.05F
PINE BLUFFS    CLOUDY    54  43  66 SE16      30.09S

$$



USA.gov is the U.S. government's official web portal to all federal, state and local government web resources and services.